GW1572 Weather Reports


time (UTC)temp
C
wind
direction
speed
KPH
gust
KPH
rain 1hr
cm
rain 24hr
cm
rain mn
cm
humidity
%
barometer
mb
20260901184216 33 208 4.8 4.8 0.00 0.00 0.00 65 1009.8
20260901183627 33 191 1.6 3.2 0.00 0.00 0.00 63 1010.1
20260901181814 32 223 4.8 6.4 0.00 0.00 0.00 67 1010.4
20260901181235 33 206 1.6 3.2 0.00 0.00 0.00 67 1010.4
20260901180639 33 249 3.2 3.2 0.00 0.00 0.00 65 1010.1
20260901180039 33 195 3.2 3.2 0.00 0.00 0.00 66 1010.1
20260901175425 32 172 0.0 0.0 0.00 0.00 0.00 74 1010.4
20260901174239 31 272 1.6 1.6 0.00 0.00 0.00 71 1010.8
20260901171834 33 324 3.2 4.8 0.00 0.00 0.00 67 1010.8
20260901171219 33 197 4.8 6.4 0.00 0.00 0.00 69 1011.1
20260901170641 33 34 0.0 1.6 0.00 0.00 0.00 68 1011.1
20260901170006 32 270 3.2 4.8 0.00 0.00 0.00 72 1010.8
20260901165427 33 269 6.4 9.7 0.00 0.00 0.00 69 1010.8
20260901164845 32 167 1.6 1.6 0.00 0.00 0.00 71 1011.1
20260901164209 32 271 1.6 3.2 0.00 0.00 0.00 71 1011.1
20260901163630 32 238 4.8 4.8 0.00 0.00 0.00 71 1011.1
20260901162428 32 297 1.6 1.6 0.00 0.00 0.00 72 1010.8
20260901161234 31 268 4.8 6.4 0.00 0.00 0.00 74 1010.8
20260901160648 31 235 3.2 3.2 0.00 0.00 0.00 75 1010.8
20260901160032 31 290 6.4 9.7 0.00 0.00 0.00 72 1010.8
20260901155427 31 290 3.2 4.8 0.00 0.00 0.00 74 1011.1
20260901154836 31 260 6.4 6.4 0.00 0.00 0.00 74 1010.8
20260901154234 31 234 4.8 4.8 0.00 0.00 0.00 75 1010.4
20260901153649 31 328 4.8 4.8 0.00 0.00 0.00 76 1010.8
20260901153008 31 298 4.8 4.8 0.00 0.00 0.00 76 1011.1
20260901151246 30 196 1.6 3.2 0.00 0.00 0.00 81 1010.8
20260901150612 30 213 1.6 1.6 0.00 0.00 0.00 81 1011.1
20260901150037 30 224 3.2 3.2 0.00 0.00 0.00 81 1010.8
20260901145446 29 314 3.2 3.2 0.00 0.00 0.00 84 1010.8
20260901144815 28 145 1.6 1.6 0.00 0.00 0.00 83 1010.8
20260901144222 28 348 4.8 4.8 0.00 0.00 0.00 86 1010.8
20260901143625 28 148 1.6 1.6 0.00 0.00 0.00 89 1011.1
20260901143011 27 212 1.6 3.2 0.00 0.00 0.00 88 1010.8
20260901142416 27 183 0.0 1.6 0.00 0.00 0.00 93 1011.1
20260901141828 27 143 0.0 0.0 0.00 0.00 0.00 95 1011.1
20260901141246 26 170 1.6 1.6 0.00 0.00 0.00 96 1011.1
20260901140646 26 131 0.0 0.0 0.00 0.00 0.00 98 1010.8
20260901140040 26 135 0.0 0.0 0.00 0.00 0.00 99 1011.1
20260901135427 25 144 0.0 0.0 0.00 0.00 0.00 99 1010.8
20260901134825 25 135 0.0 0.0 0.00 0.00 0.00 99 1011.1
20260901134207 25 161 0.0 0.0 0.00 0.00 0.00 99 1011.1
20260901133629 25 151 0.0 0.0 0.00 0.00 0.00 99 1011.1
20260901133015 24 143 0.0 0.0 0.00 0.00 0.00 99 1011.1
20260901132425 24 142 0.0 0.0 0.00 0.00 0.00 99 1011.1
20260901131809 23 149 0.0 0.0 0.00 0.00 0.00 99 1011.1
20260901131233 23 134 0.0 0.0 0.00 0.00 0.00 99 1011.1
20260901130010 23 142 0.0 0.0 0.00 0.00 0.00 99 1011.1
20260901124820 23 135 0.0 0.0 0.00 0.00 0.00 99 1011.5
20260901124234 22 141 0.0 0.0 0.00 0.00 0.00 99 1011.5
20260901123643 22 141 0.0 0.0 0.00 0.00 0.00 99 1011.1
20260901123037 22 140 1.6 1.6 0.00 0.00 0.00 99 1011.1
20260901121830 22 136 0.0 0.0 0.00 0.00 0.00 99 1011.1
20260901121236 22 142 0.0 0.0 0.00 0.00 0.00 99 1011.1
20260901120608 22 141 0.0 0.0 0.00 0.00 0.00 99 1011.1
20260901120048 22 138 0.0 0.0 0.00 0.00 0.00 99 1011.1
20260901115416 22 142 0.0 0.0 0.00 0.00 0.00 99 1011.1
20260901114849 22 141 0.0 0.0 0.00 0.00 0.00 99 1011.1
20260901113609 22 142 0.0 0.0 0.00 0.00 0.00 99 1010.8
20260901113018 22 141 0.0 0.0 0.00 0.00 0.00 99 1010.8
20260901112428 22 142 0.0 0.0 0.00 0.00 0.00 99 1010.8
20260901111830 22 142 0.0 0.0 0.00 0.00 0.00 99 1010.8
20260901111208 22 142 0.0 0.0 0.00 0.00 0.00 99 1010.4
20260901110643 22 141 0.0 0.0 0.00 0.00 0.00 99 1010.4
20260901110028 22 137 0.0 0.0 0.00 0.00 0.00 99 1010.4
20260901105412 22 146 0.0 0.0 0.00 0.00 0.00 99 1010.4
20260901104826 22 146 0.0 0.0 0.00 0.00 0.00 99 1010.4
20260901104245 22 146 0.0 0.0 0.00 0.00 0.00 99 1010.4
20260901103631 22 146 0.0 0.0 0.00 0.00 0.00 99 1010.4
20260901102412 22 142 0.0 0.0 0.00 0.00 0.00 99 1010.4
20260901101826 22 141 0.0 0.0 0.00 0.00 0.00 99 1010.4
20260901101218 22 140 0.0 0.0 0.00 0.00 0.00 99 1010.1
20260901100049 22 137 0.0 0.0 0.00 0.00 0.00 99 1010.1
20260901095442 22 144 0.0 0.0 0.00 0.00 0.00 99 1010.1
20260901094833 22 144 0.0 0.0 0.00 0.00 0.00 99 1010.1
20260901094207 22 145 0.0 0.0 0.00 0.00 0.00 99 1010.1
20260901093621 22 139 0.0 0.0 0.00 0.00 0.00 99 1010.1
20260901091831 22 140 0.0 0.0 0.00 0.00 0.00 99 1009.8
20260901091216 22 137 0.0 0.0 0.00 0.00 0.00 99 1009.8
20260901090621 22 135 0.0 0.0 0.00 0.00 0.00 99 1009.8
20260901085448 22 141 0.0 0.0 0.00 0.00 0.00 99 1009.8
20260901084818 22 140 0.0 0.0 0.00 0.00 0.00 99 1009.4
20260901084215 22 141 0.0 0.0 0.00 0.00 0.00 99 1009.8
20260901083641 22 139 0.0 0.0 0.00 0.00 0.00 99 1009.8
20260901083047 22 142 0.0 0.0 0.00 0.00 0.00 99 1009.8
20260901081844 22 142 0.0 0.0 0.00 0.00 0.00 99 1009.8
20260901081221 22 145 0.0 0.0 0.00 0.00 0.00 99 1009.8
20260901080014 22 142 0.0 0.0 0.00 0.00 0.00 99 1009.4
20260901074811 22 135 0.0 0.0 0.00 0.00 0.00 99 1009.8
20260901074228 22 142 0.0 0.0 0.00 0.00 0.00 99 1009.4
20260901073649 22 142 0.0 0.0 0.00 0.00 0.00 99 1009.4
20260901073013 22 139 0.0 0.0 0.00 0.00 0.00 99 1009.8
20260901071839 23 137 0.0 0.0 0.00 0.00 0.00 99 1009.4
20260901071244 23 133 0.0 0.0 0.00 0.00 0.00 99 1009.4
20260901070023 23 135 0.0 0.0 0.00 0.00 0.00 99 1009.4
20260901065437 23 129 0.0 0.0 0.00 0.00 0.00 99 1009.4
20260901064812 23 125 0.0 0.0 0.00 0.00 0.00 99 1009.4
20260901064233 23 140 0.0 0.0 0.00 0.00 0.00 99 1009.4
20260901063612 23 139 0.0 0.0 0.00 0.00 0.00 99 1009.4
20260901063050 23 139 0.0 0.0 0.00 0.00 0.00 99 1009.4
20260901062443 23 153 0.0 0.0 0.00 0.00 0.00 99 1009.4
20260901061827 23 145 0.0 0.0 0.00 0.00 0.00 99 1009.4
20260901060615 23 142 0.0 0.0 0.00 0.00 0.00 99 1009.4
20260901055441 23 141 0.0 0.0 0.00 0.00 0.00 99 1009.4
20260901054839 23 137 0.0 0.0 0.00 0.00 0.00 99 1009.4
20260901054232 23 130 0.0 0.0 0.00 0.00 0.00 99 1009.4
20260901053619 23 135 0.0 0.0 0.00 0.00 0.00 99 1009.4
20260901053016 23 142 0.0 0.0 0.00 0.00 0.00 99 1009.4
20260901052437 23 137 0.0 0.0 0.00 0.00 0.00 99 1009.8
20260901051844 23 142 0.0 0.0 0.00 0.00 0.00 99 1009.8
20260901051211 23 150 0.0 0.0 0.00 0.00 0.00 99 1009.4
20260901050633 23 135 0.0 0.0 0.00 0.00 0.00 99 1009.4
20260901050019 23 138 0.0 0.0 0.00 0.00 0.00 99 1009.8
20260901045445 23 139 0.0 0.0 0.00 0.00 0.00 99 1009.8
20260901044808 23 141 0.0 0.0 0.00 0.00 0.00 99 1009.8
20260901044207 23 134 0.0 0.0 0.00 0.00 0.00 99 1009.8
20260901043008 23 138 0.0 0.0 0.00 0.00 0.00 99 1009.8
20260901042443 23 146 0.0 0.0 0.00 0.00 0.00 99 1009.8
20260901041847 23 143 0.0 0.0 0.00 0.00 0.00 99 1009.8
20260901035444 24 143 0.0 0.0 0.00 0.00 0.00 99 1010.1
20260901034829 24 142 0.0 0.0 0.00 0.00 0.00 99 1010.1
20260901034218 24 142 0.0 0.0 0.00 0.00 0.00 99 1010.1
20260901033639 24 142 0.0 0.0 0.00 0.00 0.00 99 1010.1
20260901033039 24 142 0.0 0.0 0.00 0.00 0.00 99 1010.1
20260901032450 24 142 0.0 0.0 0.00 0.00 0.00 99 1010.1
20260901031811 24 142 0.0 0.0 0.00 0.00 0.00 99 1010.4
20260901031246 24 142 0.0 0.0 0.00 0.00 0.00 99 1010.4
20260901030650 24 142 0.0 0.0 0.00 0.00 0.00 99 1010.4
20260901030049 24 141 0.0 0.0 0.00 0.00 0.00 99 1010.4
20260901025414 24 137 0.0 0.0 0.00 0.00 0.00 99 1010.4
20260901024810 24 134 0.0 0.0 0.00 0.00 0.00 99 1010.4
20260901024229 25 135 0.0 0.0 0.00 0.00 0.00 99 1010.1
20260901023039 25 136 0.0 0.0 0.00 0.00 0.00 99 1010.1
20260901022432 25 131 0.0 0.0 0.00 0.00 0.00 99 1010.4
20260901021847 25 130 0.0 0.0 0.00 0.00 0.00 99 1010.4
20260901021219 25 136 0.0 0.0 0.00 0.00 0.00 99 1010.4
20260901020637 25 137 0.0 0.0 0.00 0.00 0.00 99 1010.4
20260901020045 25 137 0.0 0.0 0.00 0.00 0.00 99 1010.4
20260901014843 25 134 0.0 0.0 0.00 0.00 0.00 98 1010.4
20260901014223 25 135 0.0 0.0 0.00 0.00 0.00 98 1010.1
20260901013639 25 134 0.0 0.0 0.00 0.00 0.00 98 1010.1
20260901013046 25 134 0.0 0.0 0.00 0.00 0.00 98 1010.1
20260901012414 25 135 0.0 0.0 0.00 0.00 0.00 97 1010.1
20260901011847 25 135 0.0 0.0 0.00 0.00 0.00 97 1009.4
20260901011230 25 131 0.0 0.0 0.00 0.00 0.00 97 1009.8
20260901010643 25 131 0.0 0.0 0.00 0.00 0.00 97 1009.4
20260901010022 25 135 0.0 0.0 0.00 0.00 0.00 97 1009.4
20260901005444 25 133 0.0 0.0 0.00 0.00 0.00 97 1009.4
20260901004837 25 133 0.0 0.0 0.00 0.00 0.00 96 1009.4
20260901004233 26 135 0.0 0.0 0.00 0.00 0.00 96 1009.4
20260901003629 26 133 0.0 0.0 0.00 0.00 0.00 96 1009.4
20260901003040 26 132 0.0 0.0 0.00 0.00 0.00 95 1009.4
20260901002414 26 142 0.0 0.0 0.00 0.00 0.00 95 1009.4
20260901001826 26 143 0.0 0.0 0.00 0.00 0.00 94 1009.1
20260901000625 26 134 0.0 0.0 0.00 0.00 0.00 93 1008.8
20260901000048 26 142 0.0 0.0 0.00 0.00 0.00 93 1008.8
20260831235414 26 139 0.0 0.0 0.00 0.00 0.00 93 1009.1
20260831233648 27 142 0.0 0.0 0.00 0.00 0.00 90 1009.1
20260831233040 27 136 0.0 0.0 0.00 0.00 0.00 89 1009.1
20260831232421 27 144 0.0 0.0 0.00 0.00 0.00 88 1009.1
20260831231816 27 140 0.0 0.0 0.00 0.00 0.00 87 1009.1
20260831230048 28 142 0.0 0.0 0.00 0.00 0.00 87 1009.1
20260831225409 28 141 0.0 0.0 0.00 0.00 0.00 88 1009.4
20260831224825 28 139 0.0 0.0 0.00 0.00 0.00 87 1009.4
20260831224249 28 142 0.0 0.0 0.00 0.00 0.00 87 1009.1
20260831223044 28 136 0.0 0.0 0.00 0.00 0.00 86 1009.4
20260831222425 29 136 0.0 0.0 0.00 0.00 0.00 85 1009.4
20260831221840 29 125 0.0 0.0 0.00 0.00 0.00 85 1009.4
20260831221216 30 138 0.0 0.0 0.00 0.00 0.00 84 1009.4
20260831214830 32 145 0.0 0.0 0.00 0.00 0.00 77 1009.4
20260831214225 32 143 0.0 0.0 0.00 0.00 0.00 76 1009.8
20260831213637 33 153 0.0 0.0 0.00 0.00 0.00 72 1009.8
20260831212447 33 143 1.6 1.6 0.00 0.00 0.00 71 1009.8
20260831211242 34 196 3.2 3.2 0.00 0.00 0.00 67 1009.8
20260831210643 32 185 1.6 1.6 0.00 0.00 0.00 74 1010.1
20260831210041 32 157 0.0 1.6 0.00 0.00 0.00 76 1010.1
20260831205440 32 163 0.0 1.6 0.00 0.00 0.00 75 1009.8
20260831204843 32 199 0.0 0.0 0.00 0.00 0.00 74 1009.8
20260831204227 32 176 1.6 1.6 0.00 0.00 0.00 72 1010.1
20260831203626 33 155 0.0 1.6 0.00 0.00 0.00 66 1009.8
20260831203048 33 209 1.6 3.2 0.00 0.00 0.00 65 1009.8
20260831201242 33 164 0.0 0.0 0.00 0.00 0.00 71 1010.1
20260831200637 33 172 1.6 1.6 0.00 0.00 0.00 69 1010.1
20260831200027 33 255 1.6 1.6 0.00 0.00 0.00 67 1010.4
20260831195410 33 237 3.2 3.2 0.00 0.00 0.00 70 1010.4
20260831194835 32 265 4.8 4.8 0.00 0.00 0.00 71 1010.4
20260831194240 31 182 1.6 1.6 0.00 0.00 0.00 80 1010.4
20260831193645 31 155 0.0 0.0 0.00 0.00 0.00 80 1010.4
20260831193024 31 139 0.0 0.0 0.00 0.00 0.00 78 1010.4
20260831192445 31 182 1.6 1.6 0.00 0.00 0.00 74 1010.4
20260831191838 32 213 3.2 3.2 0.00 0.00 0.00 75 1010.8
20260831191225 32 182 1.6 1.6 0.00 0.00 0.00 72 1010.8
20260831190635 33 209 1.6 3.2 0.00 0.00 0.00 70 1010.8
20260831190045 32 342 3.2 3.2 0.00 0.00 0.00 68 1010.8
20260831185437 32 287 3.2 4.8 0.00 0.00 0.00 70 1011.1